Hourly Data Report for July 01, 2022

OTTAWA INTL A
ONTARIO
Current Station Operator: NAVCAN

45°19'00.000" N
75°40'00.000" W
114.90 m
6106001
71628
YOW

Download Data

Hourly Data (July 2022)
Hourly Data Report for July 1, 2022
TIME
LST
Temp Definition
°C
Dew Point Definition
°C
Rel Hum Definition
%
Precip. Amount Definition
mm

Wind Dir Definition
10's deg

Wind Spd Definition
km/h
Visibility Definition
km
Stn Press Definition
kPa
Hmdx Definition


Wind Chill Definition


Weather Definition


00:00 19.4 12.5 64   18 10 24.1 100.07     LegendNANA
01:00 19.7 14.1 70   19 13 24.1 100.02     Mostly Cloudy
02:00 19.1 14.7 75   19 7 24.1 99.96     LegendNANA
03:00 20.0 15.7 76   19 12 24.1 99.85     LegendNANA
04:00 20.7 16.1 75   19 14 24.1 99.79 25   Mostly Cloudy
05:00 20.6 16.1 75   19 19 24.1 99.77 25   LegendNANA
06:00 21.6 16.4 72   19 18 24.1 99.73 26   LegendNANA
07:00 22.1 16.7 71   25 19 24.1 99.85 27   Mostly Cloudy
08:00 21.9 16.2 70   24 14 24.1 99.88 27   LegendNANA
09:00 22.2 16.2 68   34 18 24.1 99.93 27   LegendNANA
10:00 22.8 16.3 66   13 15 24.1 99.77 28   Cloudy
11:00 23.8 17.3 67   16 16 24.1 99.75 29   LegendNANA
12:00 24.4 16.9 63   18 14 24.1 99.76 30   LegendNANA
13:00 24.3 17.7 66   20 15 24.1 99.75 30   Mostly Cloudy
14:00 25.4 18.1 64   21 19 24.1 99.67 31   LegendNANA
15:00 26.9 18.8 61   21 19 24.1 99.59 34   LegendNANA
16:00 27.6 17.7 54   22 29 24.1 99.50 33   Mainly Clear
17:00 27.6 17.0 52   23 23 24.1 99.47 33   LegendNANA
18:00 27.2 16.9 53   23 21 24.1 99.44 32   LegendNANA
19:00 25.9 16.9 57   23 14 24.1 99.43 31   Mostly Cloudy
20:00 23.6 17.3 67   17 7 24.1 99.40 29   LegendNANA
21:00 23.0 17.5 71   21 10 24.1 99.41 29   LegendNANA
22:00 22.1 17.4 74   26 12 24.1 99.40 28   Mostly Cloudy
23:00 21.0 17.7 81   23 10 24.1 99.40 27   LegendNANA

Notes on Data Quality.

Legend

  • E = Estimated
  • M = Missing
  • NA = Not Available*
  • [empty] = Indicates an unobserved value
Date modified: